Regional Weather Roundup
Issued by NWS

Home | Current Version | Previous Version | Text Only | Print | Product List | Glossary On
Versions: 1 2 3 4 5 6 7 8 9 10 11 12 13 14 15 16 17 18 19 20 21 22 23 24 25 26 27 28 29 30 31 32 33 34 35 36 37 38 39 40 41 42 43 44 45 46 47 48 49 50
000
ASUS43 KMPX 261201
RWRMN
WEATHER ROUNDUP FOR MINNESOTA
NATIONAL WEATHER SERVICE TWIN CITIES/CHANHASSEN MN
700 AM CDT TUE MAY 26 2015


NOTE: "FAIR" INDICATES FEW OR NO CLOUDS BELOW 12,000 FEET WITH NO
SIGNIFICANT WEATHER AND/OR OBSTRUCTIONS TO VISIBILITY. N/A MEANS
CURRENT SKY AND/OR WEATHER CONDITIONS ARE NOT AVAILABLE.

MNZ060>063-068>070-261300-
   Twin Cities Metro

CITY           SKY/WX    TMP DP  RH WIND       PRES   REMARKS
TWIN CITIES    CLOUDY    58  56  93 NW5       29.81R FOG
6HR MIN TEMP:  57; 6HR MAX TEMP:  63;

ST PAUL        CLOUDY    58  57  97 CALM      29.82R
CRYSTAL        FOG       57  56  96 N6        29.81R VSB 1
BLAINE         FOG       57  57 100 N6        29.82R VSB 1/2
LAKEVILLE      CLOUDY    55  55 100 CALM      29.81R FOG
EDEN PRAIRIE   FOG       56  55  97 N7        29.80R VSB 1
6HR MIN TEMP:  56; 6HR MAX TEMP:  60;

SOUTH ST PAUL  CLOUDY    59  57  94 CALM      29.81R
LAKE ELMO      CLOUDY    57  55  94 CALM      29.82R
$$
MNZ001>005-007-008-013>017-022>024-027-028-261300-
   Northwest Minnesota

CITY           SKY/WX    TMP DP  RH WIND       PRES   REMARKS
BEMIDJI        FOG       45  45 100 CALM      29.88R VSB 3/4
HALLOCK        MOSUNNY   55  50  82 S12       29.80R
ROSEAU         SUNNY     55  50  82 S10       29.82S
WARROAD        SUNNY     55  50  82 S9        29.83S
THIEF RVR FALL SUNNY     54  48  82 S7        29.86S
CROOKSTON      SUNNY     55  48  76 S9        29.85S
FOSSTON        SUNNY     50  48  93 CALM      29.88S
DETROIT LAKES  PTSUNNY   48  46  93 CALM      29.89S
MOORHEAD       MOSUNNY   48  48 100 SE5       29.87F FOG
PARK RAPIDS    PTSUNNY   51  48  89 N3        29.87R
MAHNOMEN       FAIR      48  47  98 SE6       29.87S
$$
MNZ006-009>011-018-025>026-261300-
   North Central Minnesota

CITY           SKY/WX    TMP DP  RH WIND       PRES   REMARKS
BAUDETTE       SUNNY     52  49  89 SW6       29.85R
FLAG ISLAND    SUNNY     54  52  94 S12       29.81R
INTL FALLS     SUNNY     47  46  97 CALM      29.87R
6HR MIN TEMP:  41; 6HR MAX TEMP:  51;

WASKISH        SUNNY     52  52 100 CALM      29.87S
BIG FORK       FOG       48  46  93 CALM      29.88S VSB 1
LONGVILLE      CLOUDY    50  50 100 CALM      29.88R FOG
GRAND RAPIDS   CLOUDY    52  48  87 CALM      29.88S
CRANE LAKE     MOSUNNY   48  48 100 CALM      29.89S FOG
ORR            MOSUNNY   50  46  87 CALM      29.85R
COOK           PTSUNNY   52  52 100 CALM      29.88R
WALKER         FAIR      48  47  99 W3        29.87S FOG
$$
MNZ012-019>021-037-261300-
   Northeast Minnesota

CITY           SKY/WX    TMP DP  RH WIND       PRES   REMARKS
DULUTH         CLOUDY    53  51  93 NE8       29.86R
6HR MIN TEMP:  53; 6HR MAX TEMP:  54; 6HR PCP:  0.01;

ELY            PTSUNNY   52  50  93 CALM      29.87S
HIBBING        CLOUDY    52  50  93 CALM      29.87S
EVELETH        PTSUNNY   52  52 100 CALM      29.88S
DULUTH HARBOR  CLOUDY    48  48 100 CALM      29.86R
TWO HARBORS    CLOUDY    57  54  88 CALM      29.84R
GRAND MARAIS     N/A     47  47 100 CALM      29.84R
G MARAIS ARPRT CLOUDY    52  48  87 N7        29.86S
$$
MNZ029>031-032-039>041-046>048-054>057-064-261300-
   West Central Minnesota

CITY           SKY/WX    TMP DP  RH WIND       PRES   REMARKS
FERGUS FALLS   PTSUNNY   52  52 100 NE5       29.88S
WHEATON        CLOUDY    48  46  93 NW3       29.89S
MORRIS         CLOUDY    54  52  94 N9        29.85S
ALEXANDRIA     CLOUDY    53  50  89 N12       29.87S
ELBOW LAKE     FAIR      53  50  91 N5        29.87R
WADENA         CLOUDY    48  48 100 CALM      29.87S FOG
GLENWOOD       CLOUDY    54  52  94 VRB13     29.85S
APPLETON       CLOUDY    55  50  82 N10       29.84S
BENSON         CLOUDY    55  52  88 NE8       29.84S
ORTONVILLE     CLOUDY    54  48  82 N12       29.85F
MADISON        CLOUDY    54  50  87 N6        29.85S
WILLMAR        CLOUDY    57  54  88 N10       29.83F
$$
MNZ033>034-036-042>043-049>051-058-059-261300-
   Central Minnesota

CITY           SKY/WX    TMP DP  RH WIND       PRES   REMARKS
ST CLOUD       CLOUDY    53  52  96 N8        29.83R
6HR MIN TEMP:  53; 6HR MAX TEMP:  57;

SAUK CENTRE    CLOUDY    55  51  88 N10       29.85S
PAYNESVILLE    CLOUDY    53  52  97 NW8       29.84R
AITKIN         CLOUDY    54  48  82 N6        29.84R
PINE RIVER     CLOUDY    50  50 100 CALM      29.91S
BRAINERD       CLOUDY    54  52  93 NE7       29.86S
STAPLES        CLOUDY    52  50  93 N6        29.87S
LONG PRAIRIE   CLOUDY    52  50  93 N8        29.86R
LITTLE FALLS   CLOUDY    54  52  94 N5        29.84R
LITCHFIELD     CLOUDY    57  57 100 VRB6      29.82R
BUFFALO        CLOUDY    56  54  91 N5        29.82R FOG
MAPLE LAKE     CLOUDY    56  56  98 N9        29.82S FOG
$$
MNZ037-044-045-052-053-261300-
   East Central Minnesota

CITY           SKY/WX    TMP DP  RH WIND       PRES   REMARKS
PRINCETON      CLOUDY    54  52  94 N8        29.83S FOG
MORA           CLOUDY    50  48  93 CALM      29.85R
CAMBRIDGE      CLOUDY    54  46  76 CALM      29.81R HAZE
RUSH CITY      CLOUDY    51  50  97 N5        29.83R FOG
MOOSE LAKE     CLOUDY    52  52 100 NE6       29.84R FOG
HINCKLEY       CLOUDY    52  52 100 N7        29.83R FOG
CLOQUET        CLOUDY    54  52  94 NE3       29.86R
MCGREGOR       CLOUDY    54  52  94 N6        29.86S
$$
MNZ071>073-080-081-089-090-097-098-261300-
   Southwest Minnesota

CITY           SKY/WX    TMP DP  RH WIND       PRES   REMARKS
MONTEVIDEO     CLOUDY    55  54  94 N9        29.84S
GRANITE FALLS  CLOUDY    55  53  92 N12       29.83S
CANBY          CLOUDY    53  50  91 N9        29.85F
MARSHALL       CLOUDY    54  48  82 N10       29.83R
REDWOOD FALLS  CLOUDY    57  54  89 N6        29.81R
OLIVIA         CLOUDY    54  52  94 N9        29.81S FOG
PIPESTONE      CLOUDY    54  52  94 NE10      29.82S
WINDOM         TSTM      55  54  94 CALM      29.83R
WORTHINGTON    CLOUDY    55  50  82 N9        29.82R
JACKSON        CLOUDY    55  54  94 NE9       29.83S
TRACY          CLOUDY    55  54  95 N9        29.83R
SLAYTON        CLOUDY    54  53  99 N12       29.83F
$$
MNZ065>067-074>077-082>085-091>093-261300-
   South Central Minnesota

CITY           SKY/WX    TMP DP  RH WIND       PRES   REMARKS
MANKATO        CLOUDY    57  54  88 CALM      29.82R
NEW ULM        CLOUDY    55  55 100 CALM      29.81S
ST JAMES       CLOUDY    57  55  94 CALM      29.83S
FAIRMONT       CLOUDY    57  52  82 CALM      29.82S
GLENCOE        CLOUDY    57  57 100 N5        29.81R
FARIBAULT      CLOUDY    57  57 100 CALM      29.82S FOG
OWATONNA       CLOUDY    59  57  94 S3        29.82R FOG
WASECA         CLOUDY    55  55 100 CALM      29.83R FOG
ALBERT LEA     CLOUDY    63  55  77 S3        29.81F
$$
MNZ078>079-086>088-094>096-261300-
   Southeast Minnesota

CITY           SKY/WX    TMP DP  RH WIND       PRES   REMARKS
ROCHESTER      CLOUDY    60  55  83 S6        29.83S
6HR MIN TEMP:  58; 6HR MAX TEMP:  65; 6HR PCP:  0.09;

RED WING       CLOUDY    59  57  94 CALM      29.80S FOG
STANTON        CLOUDY    58  56  94 CALM      29.81R FOG
DODGE CENTER   CLOUDY    61  57  88 S7        29.82R
WINONA         CLOUDY    61  57  88 SE3       29.82S
AUSTIN         CLOUDY    61  55  82 S3        29.82F
PRESTON        CLOUDY    56  55  94 CALM      29.84R
$$
ABBREVIATIONS USED IN REMARKS
   TC - TEMPERATURES IN CELSIUS
  WCI - WIND CHILL INDEX
   HX - HEAT INDEX
  VSB - VISIBILITY
$$



USA.gov is the U.S. government's official web portal to all federal, state and local government web resources and services.